This demonstration page uses our WeatherBlox Daily Observations layout. Learn more.

Left ArrowRight Arrow

Hourly Observations for February 1, 2019

Temp ( °F °C ) Dew Point ( °F °C ) Humidity (%) Winds ( mph kmh ) Pressure ( in mb ) Visibility ( mi km ) Precip ( " mm )
12:07 am 00:07 Cloudy with Light Snow 14 -10 10 -12.2 84 84 ENE 6 9 30.38 1029 4 6.43736 N/A
12:21 am 00:21 Cloudy with Light Snow 15 -9.4 10 -12.2 80 80 ENE 5 7 30.38 1029 2.5 4.02335 N/A
12:37 am 00:37 Cloudy with Light Snow 15 -9.4 10 -12.2 80 80 E 6 9 30.38 1029 1.75 2.816345 N/A
12:44 am 00:44 Cloudy with Light Snow 15 -9.4 10 -12.2 80 80 E 7 11 30.37 1028 1 1.60934 0.01 0.254
12:53 am 00:53 Cloudy with Light Snow 15 -9.4 10 -12.2 80 80 ENE 6 9 30.34 1027 1.75 2.816345 0.01 0.254
1:02 am 01:02 Cloudy with Light Snow 15 -9.4 11 -11.7 84 84 NE 5 7 30.36 1028 1.25 2.011675 N/A
1:24 am 01:24 Mostly Cloudy with Light Snow 15 -9.4 11 -11.7 84 84 E 3 6 30.35 1028 1 1.60934 0.01 0.254
1:34 am 01:34 Mostly Cloudy with Light Snow 15 -9.4 11 -11.7 84 84 ENE 5 7 30.34 1027 0.75 1.207005 0.02 0.508
1:53 am 01:53 Mostly Cloudy with Snow 15 -9.4 11 -11.7 84 84 E 5 7 30.32 1027 0.5 0.80467 0.04 1.016
2:11 am 02:11 Mostly Cloudy with Light Snow 15 -9.4 11 -11.7 84 84 N N/A 30.35 1028 1 1.60934 0.01 0.254
2:28 am 02:28 Mostly Cloudy with Light Snow 15 -9.4 11 -11.7 84 84 N N/A 30.34 1027 0.75 1.207005 0.03 0.762
2:45 am 02:45 Mostly Cloudy with Light Snow 15 -9.4 12 -11.1 88 88 N N/A 30.34 1027 1 1.60934 0.04 1.016
2:53 am 02:53 Mostly Cloudy with Light Snow 16 -8.9 12 -11.1 84 84 E 3 6 30.31 1027 1 1.60934 0.05 1.27
3:11 am 03:11 Mostly Cloudy with Light Snow 15 -9.4 12 -11.1 88 88 N N/A 30.33 1027 1 1.60934 0.01 0.254
3:27 am 03:27 Cloudy with Light Snow 16 -8.9 12 -11.1 84 84 N N/A 30.33 1027 1.75 2.816345 0.01 0.254
3:35 am 03:35 Cloudy with Light Snow 16 -8.9 12 -11.1 84 84 E 3 6 30.33 1027 2.5 4.02335 0.02 0.508
3:51 am 03:51 Cloudy with Light Snow 16 -9 12 -11 86 86 ENE 3 6 30.32 1027 4 6.43736 0.02 0.508
3:53 am 03:53 Cloudy with Light Snow 16 -8.9 12 -11.1 84 84 E 5 7 30.29 1026 4 6.43736 0.03 0.762
4:34 am 04:34 Cloudy 17 -8.3 13 -10.6 84 84 NE 3 6 30.32 1027 8 12.87472 N/A
4:53 am 04:53 Cloudy 17 -8.3 13 -10.6 84 84 N N/A 30.29 1026 7 11.26538 N/A
5:53 am 05:53 Cloudy with Mist and Fog 17 -8.3 14 -10 88 88 E 5 7 30.28 1026 3 4.82802 N/A
6:06 am 06:06 Cloudy with Mist and Fog 17 -8.3 14 -10 88 88 E 5 7 30.31 1026 3 4.82802 N/A
6:43 am 06:43 Cloudy with Mist and Fog 17 -8.3 14 -10 88 88 NE 3 6 30.33 1027 3 4.82802 N/A
6:53 am 06:53 Cloudy with Mist and Fog 18 -7.8 14 -10 84 84 ENE 5 7 30.3 1026 3 4.82802 N/A
7:05 am 07:05 Cloudy with Mist and Fog 17 -8.3 14 -10 88 88 ENE 5 7 30.33 1027 3 4.82802 N/A
7:53 am 07:53 Cloudy with Mist and Fog 18 -7.8 14 -10 84 84 ENE 3 6 30.31 1027 5 8.0467 N/A
8:53 am 08:53 Cloudy 18 -7.8 14 -10 84 84 NE 6 9 30.33 1027 7 11.26538 N/A
9:53 am 09:53 Cloudy with Mist and Fog 19 -7.2 15 -9.4 84 84 NE 3 6 30.35 1028 6 9.65604 N/A
10:25 am 10:25 Cloudy with Mist and Fog 19 -7.2 16 -8.9 88 88 NNE 3 6 30.37 1029 6 9.65604 N/A
10:35 am 10:35 Cloudy 19 -7.2 16 -8.9 88 88 NNE 5 7 30.37 1029 7 11.26538 N/A
10:53 am 10:53 Cloudy 19 -7.2 16 -8.9 88 88 N N/A 30.36 1028 8 12.87472 N/A
11:03 am 11:03 Cloudy 20 -6.7 16 -8.9 85 85 N N/A 30.37 1029 9 14.48406 N/A
11:33 am 11:33 Cloudy 21 -6.1 17 -8.3 85 85 N N/A 30.38 1029 9 14.48406 N/A
11:50 am 11:50 Cloudy 21 -6 18 -8 86 86 N N/A 30.38 1029 9 14.48406 N/A
11:53 am 11:53 Cloudy 22 -5.6 18 -7.8 85 85 NNE 3 6 30.36 1028 9 14.48406 N/A
12:11 pm 12:11 Cloudy 22 -5.6 18 -7.8 85 85 N N/A 30.38 1029 8 12.87472 N/A
12:53 pm 12:53 Cloudy 22 -5.6 18 -7.8 85 85 N N/A 30.35 1028 7 11.26538 N/A
1:09 pm 13:09 Cloudy 23 -5 19 -7.2 85 85 N N/A 30.36 1028 9 14.48406 N/A
1:17 pm 13:17 Cloudy 23 -5 19 -7.2 85 85 N N/A 30.36 1028 10 16.0934 N/A
1:53 pm 13:53 Cloudy 24 -4.4 19 -7.2 81 81 NE 3 6 30.34 1027 10 16.0934 N/A
2:53 pm 14:53 Cloudy 25 -3.9 19 -7.2 78 78 ENE 5 7 30.34 1027 10 16.0934 N/A
3:53 pm 15:53 Cloudy 26 -3.3 19 -7.2 75 75 N N/A 30.35 1028 9 14.48406 N/A
4:53 pm 16:53 Cloudy 26 -3.3 20 -6.7 78 78 N N/A 30.36 1028 10 16.0934 N/A
5:53 pm 17:53 Sunny 23 -5 17 -8.3 78 78 ENE 3 6 30.36 1028 10 16.0934 N/A
6:53 pm 18:53 Partly Cloudy 18 -7.8 13 -10.6 81 81 NE 3 6 30.37 1028 10 16.0934 N/A
7:53 pm 19:53 Cloudy 18 -7.8 14 -10 84 84 NE 5 7 30.38 1029 10 16.0934 N/A
8:53 pm 20:53 Cloudy 21 -6.1 16 -8.9 81 81 E 6 9 30.39 1029 10 16.0934 N/A
9:53 pm 21:53 Mostly Cloudy 17 -8.3 13 -10.6 84 84 ENE 3 6 30.38 1029 9 14.48406 N/A
10:53 pm 22:53 Clear with Mist and Fog 12 -11.1 8 -13.3 84 84 N N/A 30.37 1029 6 9.65604 N/A
11:53 pm 23:53 Clear 11 -11.7 7 -13.9 84 84 N N/A 30.39 1029 7 11.26538 N/A

Powered by AerisWeather